When you browse on this site, cookies collect data to enhance your experience and personalize the content and advertising you see.
Visit our Privacy Policy to learn more. By continuing to use the site, you agree to this use of cookies and data.
  • en Suisse
  • Liste des pays
  • À 7 jours
  • Température de l'eau
  • Carte météo
  • Widgets météo
  • user-avatar
    Se connecter

    Météo par heure à Constantine

    Ce jour, 22 Novembre, Vendredi

    Heure Température Précipitation Vent Pression Humidité
    00:00 +10°C° 0 mm 2 m/s 707 mmHg 62%
    01:00 +10°C° 0 mm 2 m/s 707 mmHg 61%
    02:00 +9°C° 0 mm 2 m/s 706 mmHg 60%
    03:00 +9°C° 0 mm 2 m/s 706 mmHg 59%
    04:00 +9°C° 0 mm 2 m/s 706 mmHg 57%
    05:00 +9°C° 0 mm 2 m/s 706 mmHg 56%
    06:00 +9°C° 0 mm 2 m/s 706 mmHg 55%
    07:00 +12°C° 0 mm 2 m/s 706 mmHg 51%
    08:00 +12°C° 0 mm 3 m/s 707 mmHg 48%
    09:00 +13°C° 0 mm 3 m/s 707 mmHg 45%
    10:00 +15°C° 0 mm 4 m/s 707 mmHg 41%
    11:00 +17°C° 0 mm 6 m/s 707 mmHg 37%
    12:00 +18°C° 0 mm 8 m/s 706 mmHg 33%
    13:00 +18°C° 0 mm 7 m/s 706 mmHg 34%
    14:00 +17°C° 0 mm 7 m/s 705 mmHg 36%
    15:00 +17°C° 0 mm 6 m/s 704 mmHg 37%
    16:00 +15°C° 0 mm 5 m/s 704 mmHg 39%
    17:00 +14°C° 0 mm 4 m/s 704 mmHg 41%
    18:00 +13°C° 0 mm 4 m/s 704 mmHg 43%
    19:00 +12°C° 0 mm 4 m/s 704 mmHg 44%
    20:00 +12°C° 0 mm 4 m/s 704 mmHg 44%
    21:00 +11°C° 0 mm 4 m/s 704 mmHg 44%
    22:00 +11°C° 0 mm 4 m/s 704 mmHg 42%
    23:00 +10°C° 0 mm 5 m/s 704 mmHg 41%

    Demain, 23 Novembre, Samedi

    Heure Température Précipitation Vent Pression Humidité
    00:00 +10°C° 0 mm 6 m/s 703 mmHg 40%
    01:00 +11°C° 0 mm 7 m/s 703 mmHg 41%
    02:00 +11°C° 0 mm 8 m/s 702 mmHg 42%
    03:00 +11°C° 0 mm 9 m/s 702 mmHg 43%
    04:00 +11°C° 0 mm 8 m/s 701 mmHg 44%
    05:00 +11°C° 0 mm 8 m/s 701 mmHg 46%
    06:00 +11°C° 0 mm 7 m/s 700 mmHg 47%
    07:00 +11°C° 0.8 mm 6 m/s 700 mmHg 54%
    08:00 +10°C° 0.8 mm 5 m/s 701 mmHg 61%
    09:00 +10°C° 0.8 mm 5 m/s 701 mmHg 68%
    10:00 +10°C° 2.1 mm 5 m/s 700 mmHg 73%
    11:00 +10°C° 2.1 mm 6 m/s 700 mmHg 78%
    12:00 +10°C° 2.1 mm 6 m/s 700 mmHg 84%
    13:00 +10°C° 0.2 mm 6 m/s 700 mmHg 79%
    14:00 +10°C° 0.2 mm 7 m/s 700 mmHg 75%
    15:00 +10°C° 0.2 mm 7 m/s 700 mmHg 70%
    16:00 +10°C° 0.1 mm 6 m/s 700 mmHg 73%
    17:00 +9°C° 0.1 mm 5 m/s 700 mmHg 75%
    18:00 +10°C° 0.1 mm 3 m/s 700 mmHg 78%
    19:00 +8°C° 0 mm 4 m/s 701 mmHg 78%
    20:00 +8°C° 0 mm 4 m/s 701 mmHg 78%
    21:00 +7°C° 0 mm 4 m/s 701 mmHg 77%
    22:00 +7°C° 0 mm 4 m/s 701 mmHg 78%
    23:00 +7°C° 0 mm 4 m/s 701 mmHg 79%

    Après-demain, 24 Novembre, Dimanche

    Heure Température Précipitation Vent Pression Humidité
    00:00 +8°C° 0 mm 3 m/s 701 mmHg 79%
    01:00 +7°C° 0 mm 4 m/s 701 mmHg 80%
    02:00 +6°C° 0 mm 4 m/s 701 mmHg 81%
    03:00 +6°C° 0 mm 4 m/s 701 mmHg 82%
    04:00 +6°C° 0 mm 4 m/s 702 mmHg 82%
    05:00 +6°C° 0 mm 4 m/s 702 mmHg 82%
    06:00 +7°C° 0 mm 3 m/s 702 mmHg 83%
    07:00 +7°C° 0.1 mm 5 m/s 703 mmHg 79%
    08:00 +8°C° 0.1 mm 6 m/s 704 mmHg 75%
    09:00 +9°C° 0.1 mm 7 m/s 704 mmHg 71%
    10:00 +9°C° 0 mm 7 m/s 704 mmHg 70%
    11:00 +9°C° 0 mm 7 m/s 704 mmHg 69%
    12:00 +10°C° 0 mm 7 m/s 705 mmHg 67%
    13:00 +10°C° 0 mm 7 m/s 705 mmHg 68%
    14:00 +10°C° 0 mm 7 m/s 705 mmHg 69%
    15:00 +9°C° 0 mm 7 m/s 705 mmHg 70%
    16:00 +9°C° 0.1 mm 7 m/s 705 mmHg 75%
    17:00 +8°C° 0.1 mm 6 m/s 705 mmHg 80%
    18:00 +7°C° 0.1 mm 5 m/s 705 mmHg 85%
    19:00 +7°C° 0 mm 5 m/s 706 mmHg 85%
    20:00 +7°C° 0 mm 4 m/s 706 mmHg 86%
    21:00 +7°C° 0 mm 4 m/s 707 mmHg 86%
    22:00 +7°C° 0 mm 4 m/s 707 mmHg 86%
    23:00 +8°C° 0 mm 3 m/s 707 mmHg 85%

    25 Novembre, Lundi

    Heure Température Précipitation Vent Pression Humidité
    00:00 +8°C° 0 mm 3 m/s 707 mmHg 85%
    01:00 +7°C° 0 mm 3 m/s 707 mmHg 86%
    02:00 +7°C° 0 mm 3 m/s 706 mmHg 87%
    03:00 +6°C° 0 mm 2 m/s 706 mmHg 87%
    04:00 +6°C° 0 mm 2 m/s 707 mmHg 87%
    05:00 +6°C° 0 mm 2 m/s 707 mmHg 87%
    06:00 +6°C° 0 mm 2 m/s 707 mmHg 86%
    07:00 +7°C° 0 mm 3 m/s 708 mmHg 81%
    08:00 +9°C° 0 mm 3 m/s 708 mmHg 76%
    09:00 +10°C° 0 mm 4 m/s 709 mmHg 72%
    10:00 +11°C° 0 mm 4 m/s 709 mmHg 68%
    11:00 +12°C° 0 mm 4 m/s 709 mmHg 64%
    12:00 +13°C° 0 mm 4 m/s 709 mmHg 60%
    13:00 +12°C° 0 mm 4 m/s 709 mmHg 61%
    14:00 +12°C° 0 mm 4 m/s 709 mmHg 63%
    15:00 +12°C° 0 mm 4 m/s 709 mmHg 64%
    16:00 +11°C° 0 mm 3 m/s 709 mmHg 71%
    17:00 +10°C° 0 mm 2 m/s 709 mmHg 78%
    18:00 +9°C° 0 mm 1 m/s 709 mmHg 85%
    19:00 +9°C° 0 mm 1 m/s 709 mmHg 86%
    20:00 +9°C° 0 mm 1 m/s 710 mmHg 87%
    21:00 +9°C° 0 mm 1 m/s 710 mmHg 88%
    22:00 +9°C° 0 mm 1 m/s 710 mmHg 87%
    23:00 +9°C° 0 mm 1 m/s 710 mmHg 86%

    26 Novembre, Mardi

    Heure Température Précipitation Vent Pression Humidité
    00:00 +8°C° 0 mm 1 m/s 709 mmHg 85%
    01:00 +7°C° 0 mm 2 m/s 709 mmHg 85%
    02:00 +7°C° 0 mm 2 m/s 709 mmHg 85%
    03:00 +7°C° 0 mm 2 m/s 709 mmHg 85%
    04:00 +8°C° 0 mm 1 m/s 709 mmHg 85%
    05:00 +8°C° 0 mm 1 m/s 710 mmHg 85%
    06:00 +8°C° 0 mm 1 m/s 710 mmHg 85%
    07:00 +9°C° 0 mm 1 m/s 710 mmHg 79%
    08:00 +10°C° 0 mm 2 m/s 710 mmHg 74%
    09:00 +13°C° 0 mm 2 m/s 711 mmHg 68%
    10:00 +14°C° 0 mm 2 m/s 711 mmHg 65%
    11:00 +15°C° 0 mm 2 m/s 711 mmHg 62%
    12:00 +16°C° 0 mm 2 m/s 710 mmHg 59%
    13:00 +17°C° 0 mm 2 m/s 710 mmHg 59%
    14:00 +17°C° 0 mm 2 m/s 710 mmHg 59%
    15:00 +18°C° 0 mm 1 m/s 710 mmHg 59%
    16:00 +15°C° 0 mm 1 m/s 710 mmHg 66%
    17:00 +14°C° 0 mm 1 m/s 710 mmHg 72%
    18:00 +11°C° 0 mm 0 m/s 709 mmHg 78%
    19:00 +12°C° 0 mm 1 m/s 710 mmHg 78%
    20:00 +12°C° 0 mm 1 m/s 710 mmHg 78%
    21:00 +12°C° 0 mm 1 m/s 710 mmHg 78%
    22:00 +12°C° 0 mm 1 m/s 709 mmHg 77%
    23:00 +12°C° 0 mm 2 m/s 709 mmHg 76%

    27 Novembre, Mercredi

    Heure Température Précipitation Vent Pression Humidité
    00:00 +12°C° 0 mm 2 m/s 709 mmHg 76%
    01:00 +10°C° 0 mm 2 m/s 709 mmHg 75%
    02:00 +10°C° 0 mm 2 m/s 709 mmHg 75%
    03:00 +10°C° 0 mm 2 m/s 709 mmHg 75%
    04:00 +10°C° 0 mm 2 m/s 709 mmHg 75%
    05:00 +10°C° 0 mm 2 m/s 708 mmHg 74%
    06:00 +10°C° 0 mm 2 m/s 708 mmHg 74%
    07:00 +12°C° 0 mm 2 m/s 709 mmHg 69%
    08:00 +14°C° 0 mm 2 m/s 709 mmHg 65%
    09:00 +15°C° 0 mm 2 m/s 710 mmHg 61%
    10:00 +16°C° 0 mm 2 m/s 710 mmHg 56%
    11:00 +18°C° 0 mm 3 m/s 710 mmHg 51%
    12:00 +19°C° 0 mm 3 m/s 710 mmHg 46%
    13:00 +19°C° 0 mm 3 m/s 709 mmHg 48%
    14:00 +19°C° 0 mm 3 m/s 709 mmHg 49%
    15:00 +19°C° 0 mm 2 m/s 709 mmHg 50%
    16:00 +17°C° 0 mm 2 m/s 709 mmHg 54%
    17:00 +16°C° 0 mm 2 m/s 709 mmHg 57%
    18:00 +14°C° 0 mm 2 m/s 709 mmHg 60%
    19:00 +14°C° 0 mm 2 m/s 709 mmHg 61%
    20:00 +14°C° 0 mm 2 m/s 709 mmHg 61%
    21:00 +14°C° 0 mm 2 m/s 709 mmHg 62%
    22:00 +14°C° 0 mm 2 m/s 709 mmHg 62%
    23:00 +13°C° 0 mm 2 m/s 709 mmHg 63%
    Voir plus